星链-32424 (STARLINK-32424)

导读 | 豆包AI

STARLINK-32424是美国SpaceX公司星链(Starlink)卫星互联网项目的组网卫星,于北京时间2024年10月15日发射升空,本次发射属于Starlink Group 9-7任务,由猎鹰9号运载火箭从加利福尼亚州范登堡太空军基地发射,入轨低地球轨道。作为星链星座的组成部分,它将为全球偏远地区提供低延迟高速宽带互联网服务,助力星链全球覆盖网络的搭建完善,进一步拓展卫星互联网的服务范围。

基本信息
目录编号:
61548
目录名称:
STARLINK-32424
国际标识:
2024-184S
轨道中心:
EARTH
卫星名称:
星链-32424
卫星全名:
星链-32424 (STARLINK-32424)
卫星状态:
在轨 (已飞行516 天)
发射日期:
2024-10-15 UTC
国别 :
美国 (US)
星等 :
--
轨道信息
数据来源 国际轨道数据
星历时间: 2026-03-15T05:51:13+0800
13小时前
查看轨道信息
半长轴: 6853.456km
偏心率: 0.0001188
轨道倾角: 53.162°
近地点辐角 42.421°
升交点赤经 349.884°
平近点角 317.689°
近地点: 474.504km
远地点: 476.134km
周期: 94.107分钟
每日圈数: 15.301653
详细信息
固有亮度:
5
最大亮度:
2.5
卫星平台:
Starlink V1.0
覆盖范围:
全球
运营商:
太空探索技术公司
运营商所在国:
美国
制造商(研发单位):
太空探索技术公司
制造商所在国:
美国
使用方式:
暂无
卫星简介
Starlink 计划是 SpaceX 推出的全球卫星互联网项目,通过发射低轨道卫星,为全球尤其是偏远地区提供高速、低延迟的互联网服务。自 2019 年起,Starlink 已部署数千颗卫星,旨在缩小全球数字鸿沟,推动互联网普及。该项目还为军事、航空等行业提供通信支持,带来广泛经济效益。
2D轨道图
3D轨道图
轨道高度分析图
轨道倾角分析图
轨道综合分析图
查看轨道综合分析图